Weather History for Monett, MO

Change the Weather History Date:

Tuesday, August 6, 2013

  Actual Average (KJLN) Record (KJLN)
Temperature  
Mean Temperature 78 °F 81 °F  
Max Temperature 87 °F 92 °F 105 °F (1956)
Min Temperature 69 °F 70 °F 56 °F (1948)
Degree Days  
Heating Degree Days 0 0  
Month to date heating degree days 0  
Since 1 June heating degree days 5  
Since 1 July heating degree days 0  
Cooling Degree Days 13 16  
Month to date cooling degree days 96  
Year to date cooling degree days 1067  
Since 1 June cooling degree days 887  
Growing Degree Days 28 (Base 50)    
Moisture  
Dew Point 73 °F    
Average Humidity 87    
Maximum Humidity 100    
Minimum Humidity 62    
Precipitation  
Precipitation 0.13 in 0.10 in 1.37 in (2013)
Month to date precipitation 0.59  
Year to date precipitation 28.21  
Sea Level Pressure  
Sea Level Pressure 29.89 in    
Wind  
Wind Speed 8 mph (SE)    
Max Wind Speed 16 mph    
Max Gust Speed 25 mph    
Visibility 10 miles    
Events Rain , Thunderstorm    
T = Trace of Precipitation, MM = Missing Value Source: NWS Daily Summary

Daily Weather History Graph

Daily Weather History Graph

Search for Another Location

Airport:

Trip Planner

Search our weather history database for the weather conditions in past years. The results will help you decide how hot, cold, wet, or windy it might be!

Date:

Astronomy

Aug. 06, 2013 Rise Set
Actual Time 6:25 AM CDT 8:17 PM CDT
Civil Twilight 5:57 AM CDT 8:45 PM CDT
Nautical Twilight 5:23 AM CDT 9:19 PM CDT
Astronomical Twilight 4:46 AM CDT 9:56 PM CDT
Moon 6:16 AM CDT (8/6) 7:54 PM CDT (8/6)
Length of Visible Light 14h 48m
Length of Day
13h 51m
Waning Crescent, 0% of the Moon is Illuminated
Aug 6
Waning Crescent
Aug 6
New
Aug 14
First Quarter
Aug 20
Full
Aug 28
Last Quarter

Hourly Weather History & Observations

Time (CDT) Temp. Heat Index Dew Point Humidity Pressure Visibility Wind Dir Wind Speed Gust Speed Precip Events Conditions
12:15 AM 77.0 °F - 75.2 °F 94% 29.90 in 10.0 mi SSE 6.9 mph - N/A   Clear
12:35 AM 78.8 °F - 75.2 °F 89% 29.89 in 10.0 mi SSE 4.6 mph - N/A   Clear
12:55 AM 77.0 °F - 75.2 °F 94% 29.89 in 10.0 mi SSE 3.5 mph - N/A   Clear
1:15 AM 77.0 °F - 75.2 °F 94% 29.89 in 10.0 mi SE 4.6 mph - N/A   Clear
1:35 AM 77.0 °F - 75.2 °F 94% 29.88 in 10.0 mi SSE 5.8 mph - N/A   Clear
1:55 AM 78.8 °F - 75.2 °F 89% 29.86 in 10.0 mi South 8.1 mph - N/A   Clear
2:15 AM 78.8 °F - 73.4 °F 83% 29.88 in 10.0 mi SSW 8.1 mph - N/A   Scattered Clouds
2:35 AM 78.8 °F - 73.4 °F 83% 29.89 in 10.0 mi SSW 8.1 mph - N/A Thunderstorm Overcast
2:55 AM 77.0 °F - 73.4 °F 89% 29.94 in 10.0 mi WNW 16.1 mph 25.3 mph 0.02 in Rain , Thunderstorm Light Thunderstorms and Rain
3:15 AM 73.4 °F - 71.6 °F 94% 29.93 in 10.0 mi NW 10.4 mph 18.4 mph 0.01 in Rain , Thunderstorm Thunderstorms and Rain
3:35 AM 71.6 °F - 69.8 °F 94% 29.93 in 10.0 mi NNW 15.0 mph 23.0 mph 0.05 in Rain , Thunderstorm Thunderstorms and Rain
3:55 AM 69.8 °F - 69.8 °F 100% 29.93 in 10.0 mi NNW 12.7 mph - 0.07 in Rain , Thunderstorm Thunderstorms and Rain
4:15 AM 69.8 °F - 69.8 °F 100% 29.92 in 10.0 mi NNW 11.5 mph 19.6 mph 0.01 in Rain , Thunderstorm Light Thunderstorms and Rain
4:35 AM 69.8 °F - 69.8 °F 100% 29.92 in 10.0 mi NNW 12.7 mph 19.6 mph 0.01 in Rain , Thunderstorm Light Thunderstorms and Rain
4:55 AM 69.8 °F - 69.8 °F 100% 29.90 in 10.0 mi NNW 6.9 mph - 0.02 in Rain Light Rain
5:15 AM 69.8 °F - 69.8 °F 100% 29.89 in 10.0 mi NW 4.6 mph - 0.01 in Rain Light Rain
5:35 AM 69.8 °F - 69.8 °F 100% 29.89 in 10.0 mi Calm Calm - 0.02 in Rain Light Rain
5:55 AM 69.8 °F - 69.8 °F 100% 29.88 in 10.0 mi Calm Calm - 0.02 in Rain Light Rain
6:15 AM 69.8 °F - 69.8 °F 100% 29.88 in 10.0 mi SE 3.5 mph - N/A Rain Light Rain
6:35 AM 69.8 °F - 69.8 °F 100% 29.89 in 10.0 mi ESE 4.6 mph - N/A   Scattered Clouds
6:55 AM 69.8 °F - 69.8 °F 100% 29.90 in 10.0 mi ESE 5.8 mph - N/A Rain Light Rain
7:15 AM 69.8 °F - 69.8 °F 100% 29.91 in 10.0 mi SE 3.5 mph - N/A   Scattered Clouds
7:35 AM 69.8 °F - 69.8 °F 100% 29.92 in 10.0 mi SSE 5.8 mph - N/A   Scattered Clouds
7:55 AM 69.8 °F - 69.8 °F 100% 29.91 in 10.0 mi SE 12.7 mph 16.1 mph N/A   Mostly Cloudy
8:15 AM 69.8 °F - 69.8 °F 100% 29.93 in 10.0 mi East 8.1 mph - N/A   Mostly Cloudy
8:35 AM 71.6 °F - 69.8 °F 94% 29.93 in 10.0 mi ESE 10.4 mph - N/A   Mostly Cloudy
8:55 AM 71.6 °F - 69.8 °F 94% 29.93 in 10.0 mi ESE 11.5 mph 16.1 mph N/A   Mostly Cloudy
9:15 AM 71.6 °F - 69.8 °F 94% 29.93 in 10.0 mi ESE 11.5 mph - N/A   Overcast
9:35 AM 71.6 °F - 69.8 °F 94% 29.94 in 10.0 mi SE 11.5 mph 18.4 mph N/A   Overcast
9:55 AM 73.4 °F - 71.6 °F 94% 29.95 in 10.0 mi ESE 11.5 mph 18.4 mph N/A   Overcast
10:15 AM 73.4 °F - 71.6 °F 94% 29.94 in 10.0 mi ESE 10.4 mph 16.1 mph N/A   Overcast
10:35 AM 75.2 °F - 71.6 °F 89% 29.94 in 10.0 mi SE 11.5 mph 17.3 mph N/A   Mostly Cloudy
10:55 AM 75.2 °F - 71.6 °F 89% 29.95 in 10.0 mi ESE 13.8 mph 18.4 mph N/A   Mostly Cloudy
11:15 AM 77.0 °F - 71.6 °F 83% 29.94 in 10.0 mi ESE 11.5 mph 18.4 mph N/A   Overcast
11:35 AM 77.0 °F - 71.6 °F 83% 29.94 in 10.0 mi SE 13.8 mph - N/A   Overcast
11:55 AM 77.0 °F - 71.6 °F 83% 29.94 in 10.0 mi SE 9.2 mph - N/A   Scattered Clouds
12:15 PM 78.8 °F - 71.6 °F 78% 29.94 in 10.0 mi SE 9.2 mph 16.1 mph N/A   Clear
12:35 PM 78.8 °F - 73.4 °F 83% 29.94 in 10.0 mi ESE 10.4 mph 17.3 mph N/A   Clear
12:55 PM 80.6 °F 85.4 °F 73.4 °F 79% 29.93 in 10.0 mi ESE 9.2 mph 16.1 mph N/A   Mostly Cloudy
1:15 PM 82.4 °F 88.2 °F 73.4 °F 74% 29.93 in 10.0 mi ESE 9.2 mph - N/A   Scattered Clouds
1:35 PM 80.6 °F 84.6 °F 71.6 °F 74% 29.93 in 10.0 mi SE 5.8 mph - N/A   Scattered Clouds
1:55 PM 82.4 °F 88.2 °F 73.4 °F 74% 29.92 in 10.0 mi SE 8.1 mph - N/A   Scattered Clouds
2:15 PM 82.4 °F 88.2 °F 73.4 °F 74% 29.91 in 10.0 mi SE 9.2 mph - N/A   Scattered Clouds
2:35 PM 80.6 °F 85.4 °F 73.4 °F 79% 29.91 in 10.0 mi SSE 5.8 mph - N/A   Mostly Cloudy
2:55 PM 82.4 °F 89.5 °F 75.2 °F 79% 29.90 in 10.0 mi ESE 5.8 mph - N/A   Light Drizzle
3:15 PM 86.0 °F 96.9 °F 77.0 °F 74% 29.89 in 10.0 mi SE 8.1 mph - N/A   Scattered Clouds
3:35 PM 84.2 °F 92.3 °F 75.2 °F 74% 29.89 in 10.0 mi SE 9.2 mph - N/A   Mostly Cloudy
3:55 PM 86.0 °F 96.9 °F 77.0 °F 74% 29.89 in 10.0 mi SE 6.9 mph - N/A   Scattered Clouds
4:15 PM 87.8 °F 97.6 °F 75.2 °F 66% 29.89 in 10.0 mi SSE 8.1 mph - N/A   Clear
4:35 PM 87.8 °F 95.6 °F 73.4 °F 62% 29.88 in 10.0 mi SSE 9.2 mph - N/A   Clear
4:55 PM 87.8 °F 95.6 °F 73.4 °F 62% 29.88 in 10.0 mi South 10.4 mph - N/A   Clear
5:15 PM 87.8 °F 97.6 °F 75.2 °F 66% 29.87 in 10.0 mi South 9.2 mph - N/A   Clear
5:35 PM 87.8 °F 97.6 °F 75.2 °F 66% 29.86 in 10.0 mi South 8.1 mph - N/A   Clear
5:55 PM 87.8 °F 99.7 °F 77.0 °F 70% 29.86 in 10.0 mi South 8.1 mph - N/A   Clear
6:15 PM 87.8 °F 99.7 °F 77.0 °F 70% 29.84 in 10.0 mi South 10.4 mph - N/A   Clear
6:35 PM 86.0 °F 96.9 °F 77.0 °F 74% 29.84 in 10.0 mi South 8.1 mph - N/A   Clear
6:55 PM 86.0 °F 96.9 °F 77.0 °F 74% 29.83 in 10.0 mi South 6.9 mph - N/A   Clear
7:15 PM 86.0 °F 99.3 °F 78.8 °F 79% 29.83 in 10.0 mi South 8.1 mph - N/A   Clear
7:35 PM 84.2 °F 96.1 °F 78.8 °F 84% 29.83 in 10.0 mi SSE 5.8 mph - N/A   Clear
7:55 PM 82.4 °F 92.4 °F 78.8 °F 89% 29.84 in 10.0 mi SSE 3.5 mph - N/A   Clear
8:15 PM 82.4 °F 90.9 °F 77.0 °F 84% 29.84 in 10.0 mi SSE 5.8 mph - N/A   Clear
8:35 PM 80.6 °F 87.1 °F 77.0 °F 89% 29.84 in 10.0 mi SSE 5.8 mph - N/A   Clear
8:55 PM 80.6 °F 87.1 °F 77.0 °F 89% 29.84 in 10.0 mi SE 5.8 mph - N/A   Clear
9:15 PM 78.8 °F - 77.0 °F 94% 29.85 in 10.0 mi SE 5.8 mph - N/A   Clear
9:35 PM 78.8 °F - 75.2 °F 89% 29.86 in 10.0 mi SE 6.9 mph - N/A   Clear
9:55 PM 78.8 °F - 75.2 °F 89% 29.86 in 10.0 mi SE 6.9 mph - N/A   Clear
10:15 PM 78.8 °F - 75.2 °F 89% 29.86 in 10.0 mi SE 6.9 mph - N/A   Clear
10:35 PM 78.8 °F - 75.2 °F 89% 29.87 in 10.0 mi SSE 5.8 mph - N/A   Clear
10:55 PM 78.8 °F - 75.2 °F 89% 29.87 in 10.0 mi SSE 6.9 mph - N/A   Clear
11:15 PM 78.8 °F - 75.2 °F 89% 29.87 in 10.0 mi SSE 6.9 mph - N/A   Clear
11:35 PM 78.8 °F - 75.2 °F 89% 29.87 in 10.0 mi SSE 5.8 mph - N/A   Clear
11:55 PM 78.8 °F - 75.2 °F 89% 29.88 in 10.0 mi South 6.9 mph - N/A   Clear